Location: *
(37.5724°S, 58.0067°E)
Time: 19:52:44
(UTC+00:00)

Envisat - Visible Passes

Search period start: 29 November 2020 00:00
Search period end: 09 December 2020 00:00
Orbit: 764 x 766 km, 98.1° (Epoch: 29 November)

Date Brightness Start Highest point End Pass type
(mag) Time Alt. Az. Time Alt. Az. Time Alt. Az.
29 Nov 6.5 23:44:49 10° E 23:46:42 12° ESE 23:48:34 10° SE visible
04 Dec 6.1 23:57:22 10° ENE 00:00:31 17° ESE 00:03:41 10° SSE visible
07 Dec 6.4 23:46:59 10° E 23:49:17 13° ESE 23:51:34 10° SE visible
